Location: Charlottesville
(38.0290°N, 78.4770°W)
Time: 05:26:57
(UTC-04:00)

ISS - Pass Details

Date: 09 October 2017
Orbit: 400 x 408 km, 51.6° (Epoch: 24 October)

Event Time Altitude Azimuth Distance (km) Brightness Sun altitude
Rises 20:34:15 0° 318° (NW) 2,328 0.8 -22.4°
Reaches altitude 10° 20:36:39 10° 334° (NNW) 1,467 -0.6 -22.9°
Enters shadow 20:37:47 16° 351° (N) 1,144 -1.4 -23.1°
